Flag for U.S.A. Weather past 2 weeks in Mountain View, California, U.S.A.

Now
64 °F

Clear.


Feels Like: 64 °F
Forecast: 62 / 73 °F
Wind: No wind

Location: Moffett Field

Current Time: Sep 1, 2015 at 11:49:30 PM

Latest Report: Sep 1, 2015 at 10:56 PM


Visibility: 10 mi

Pressure: 29.94 "Hg

Humidity: 68%

Dew point: 53 °F

Location of Mountain ViewLocation

Historic Weather in Mountain View — Graph

°F

Mountain View temperature yesterday

Maximum temperature yesterday: 81 °F (at 12:56 PM)
Minimum temperature yesterday: 61 °F (at 4:56 AM)
Average temperature yesterday: 69 °F

Past Weeks' High & Low Weather Summary

 TemperatureHumidityPressure
High90 °F (Aug 28, 2:56 PM)90% (Aug 26, 1:56 AM)30.08 "Hg (Aug 26, 1:56 AM)
Low59 °F (Sep 1, 4:56 AM)26% (Aug 27, 1:56 PM)29.84 "Hg (Aug 28, 4:56 PM)
Average69 °F68%29.95 "Hg
* Reported Aug 17 10:56 PM — Sep 1 10:56 PM, Mountain View, Weather by CustomWeather, © 2015

Note: Actual official high and low records may vary slightly from our data, if they occured in-between our weather recording intervals... More about our weather records

Advertising

Mountain View weather history for previous 24 hours

 ConditionsComfort  
Time TempWeatherWind HumidityBarometerVisibility
10:56 PM
Tue, Sep 1
64 °FClear.No wind68%29.94 "Hg10 mi
9:56 PM64 °FClear.5 mph70%29.95 "Hg10 mi
8:56 PM66 °FClear.6 mph63%29.93 "Hg10 mi
7:56 PM68 °FSunny.10 mph59%29.90 "Hg10 mi
6:56 PM72 °FSunny.8 mph53%29.87 "Hg10 mi
5:56 PM78 °FSunny.7 mph46%29.85 "Hg10 mi
4:56 PM78 °FSunny.14 mph52%29.84 "Hg10 mi
3:56 PM78 °FSunny.15 mph50%29.85 "Hg10 mi
1:56 PM78 °FSunny.13 mph50%29.88 "Hg10 mi
12:56 PM78 °FSunny.6 mph50%29.89 "Hg10 mi
11:56 AM76 °FSunny.7 mph52%29.90 "Hg10 mi
10:56 AM72 °FSunny.No wind55%29.91 "Hg10 mi
9:56 AM69 °FSunny.No wind63%29.90 "Hg10 mi
8:56 AM65 °FSunny.No wind70%29.90 "Hg10 mi
7:56 AM63 °FSunny.No wind78%29.90 "Hg10 mi
6:56 AM60 °FClear.No wind78%29.89 "Hg10 mi
5:56 AM60 °FClear.No wind75%29.88 "Hg10 mi
4:56 AM59 °FClear.No wind81%29.88 "Hg10 mi
3:56 AM61 °FClear.No wind78%29.88 "Hg10 mi
2:56 AM62 °FClear.No wind78%29.88 "Hg10 mi
2:03 AM63 °FPassing clouds.No wind83%29.88 "Hg10 mi
1:56 AM63 °FPassing clouds.No wind81%29.88 "Hg10 mi
12:56 AM63 °FClear.No wind81%29.89 "Hg10 mi
11:56 PM
Mon, Aug 31
63 °FClear.3 mph81%29.89 "Hg10 mi
Weather by CustomWeather, © 2015

See weather overviewHow to use our weather pages